Regional Weather Roundup
Issued by NWS

Home | Current Version | Previous Version | Graphics & Text | Print | Product List | Glossary On
Versions: 1 2 3 4 5 6 7 8 9 10 11 12 13 14 15 16 17 18 19 20 21 22 23 24 25 26 27 28 29 30 31 32 33 34 35 36 37 38 39 40 41 42 43 44 45 46 47 48 49 50
000
ASUS43 KLMK 230102
RWRKY
KENTUCKY REGIONAL WEATHER ROUNDUP
NATIONAL WEATHER SERVICE LOUISVILLE KY
900 PM EDT SAT APR 22 2017

NOTE "FAIR" INDICATES FEW OR NO CLOUDS BELOW 12,000 FEET
WITH NO SIGNIFICANT WEATHER AND/OR OBSTRUCTIONS TO VISIBILITY.

KYZ001>023-026-027-061>063-070>075-230200-
WESTERN AND SOUTH CENTRAL KENTUCKY

CITY           SKY/WX    TMP DP  RH WIND       PRES   REMARKS
PADUCAH        CLOUDY    54  45  71 N12       29.95S
HENDERSON      CLOUDY    53  43  68 NE10      29.99R
OWENSBORO      PTCLDY    53  43  68 NE12      29.99R
HOPKINSVILLE   CLOUDY    53  50  87 NE10      29.92R
BOWLING GREEN  CLOUDY    54  50  86 NE9       29.94R
GLASGOW        NOT AVBL
$$

KYZ024-025-028>034-038-045-046-053-230200-
NORTH CENTRAL KENTUCKY

CITY           SKY/WX    TMP DP  RH WIND       PRES   REMARKS
LOUISVILLE/SDF PTCLDY    52  41  66 NE6       30.00R
LOUISVILLE/LOU CLEAR     53  40  61 NE7       30.01R
FORT KNOX      CLOUDY    50  41  71 NE6       29.98R
$$

KYZ035>037-039>044-047>052-055>060-089>105-230200-
NORTHEAST KENTUCKY

CITY           SKY/WX    TMP DP  RH WIND       PRES   REMARKS
LEXINGTON      CLEAR     47  41  80 NE7       30.00R
COVINGTON      PTCLDY    52  34  50 NE17      30.02R
FRANKFORT      CLEAR     51  39  63 NE8       29.99R
$$

KYZ054-064>069-076>088-106>120-230200-
SOUTHEAST KENTUCKY

CITY           SKY/WX    TMP DP  RH WIND       PRES   REMARKS
JACKSON        CLOUDY    47  46  97 VRB6      29.98S FOG
LONDON         CLOUDY    49  46  90 NE9       29.94F
SOMERSET       NOT AVBL
MIDDLESBORO    RAIN      51  51 100 CALM      29.89F
MONTICELLO     CLOUDY    50  48  93 NW5       29.95S
$$





USA.gov is the U.S. government's official web portal to all federal, state and local government web resources and services.